OE-1066 Weather Reports


time (UTC)temp
F
wind
direction
speed
knots
gust
knots
rain 1hr
in
rain 24hr
in
rain mn
in
humidity
%
barometer
mb
20260903071110 67 112 1.7 3.5 0.00 0.00 0.00 65 1021.9
20260903064109 66 175 1.7 3.5 0.00 0.00 0.00 69 1022.0
20260903061110 65 161 1.7 3.5 0.00 0.00 0.00 70 1022.1
20260903054109 64 194 1.7 4.3 0.00 0.00 0.00 71 1021.1
20260903051110 64 178 1.7 4.3 0.00 0.00 0.00 71 1021.1
20260903044109 64 191 0.9 4.3 0.00 0.00 0.00 73 1021.2
20260903041109 64 212 0.9 1.7 0.00 0.00 0.00 74 1021.2
20260903031110 65 206 0.9 2.6 0.00 0.00 0.00 72 1021.1
20260903021109 65 259 0.9 2.6 0.00 0.00 0.00 69 1021.0
20260903014109 66 99 1.7 6.1 0.00 0.00 0.00 69 1021.0
20260903011110 65 169 1.7 4.3 0.00 0.00 0.00 70 1020.0
20260903004110 65 169 2.6 5.2 0.00 0.00 0.00 70 1020.0
20260903001509 65 186 3.5 7.0 0.00 0.00 0.00 69 1020.0
20260902234110 66 178 3.5 6.1 0.00 0.00 0.00 69 1019.9
20260902224110 67 193 2.6 5.2 0.00 0.00 0.00 68 1019.8
20260902221110 67 187 2.6 5.2 0.00 0.00 0.00 66 1019.8
20260902214110 68 186 1.7 3.5 0.00 0.00 0.00 66 1019.7
20260902211110 69 190 0.9 2.6 0.00 0.00 0.00 62 1019.6
20260902204111 70 131 1.7 3.5 0.00 0.00 0.00 61 1019.5
20260902201110 70 177 1.7 4.3 0.00 0.00 0.00 60 1019.5
20260902194110 71 181 1.7 4.3 0.00 0.00 0.00 60 1019.4
20260902191110 72 145 1.7 3.5 0.00 0.00 0.00 57 1019.3
20260902184110 73 67 1.7 3.5 0.00 0.00 0.00 53 1018.2
20260902181110 74 65 1.7 5.2 0.00 0.00 0.00 51 1018.1
20260902174110 76 24 1.7 4.3 0.00 0.00 0.00 47 1017.9
20260902171110 77 332 1.7 6.1 0.00 0.00 0.00 46 1017.9
20260902164110 77 11 1.7 5.2 0.00 0.00 0.00 46 1017.8
20260902161110 77 346 2.6 7.0 0.00 0.00 0.00 46 1017.8
20260902154110 78 354 3.5 10.4 0.00 0.00 0.00 46 1017.8
20260902151110 78 337 3.5 7.8 0.00 0.00 0.00 46 1017.7
20260902144110 77 341 2.6 6.1 0.00 0.00 0.00 46 1017.8
20260902141110 78 22 3.5 10.4 0.00 0.00 0.00 45 1017.8
20260902134109 77 337 2.6 7.0 0.00 0.00 0.00 45 1017.8
20260902131110 77 315 2.6 7.0 0.00 0.00 0.00 45 1018.9
20260902124109 77 325 2.6 7.8 0.00 0.00 0.00 43 1018.9
20260902121110 76 315 2.6 6.1 0.00 0.00 0.00 46 1018.9
20260902114110 76 314 2.6 6.1 0.00 0.00 0.00 48 1019.0
20260902111110 75 301 2.6 7.0 0.00 0.00 0.00 51 1019.1
20260902104110 74 322 2.6 6.1 0.00 0.00 0.00 52 1019.2
20260902101110 74 322 2.6 5.2 0.00 0.00 0.00 52 1020.2
20260902094110 73 328 1.7 5.2 0.00 0.00 0.00 54 1020.3
20260902091109 72 271 1.7 4.3 0.00 0.00 0.00 56 1020.4
20260902084109 71 342 1.7 4.3 0.00 0.00 0.00 59 1020.5
20260902081109 69 143 1.7 3.5 0.00 0.00 0.00 62 1020.7
20260902074110 66 73 1.7 4.3 0.00 0.00 0.00 66 1020.9